This is the latest recevied weather packets stored in our database for station/object N2PPN. If no packets are shown the sender has not sent any weather packets the latest 10 day(s).
| Time | Temp. | Humidity | Pressure | Rain* | Wind** | Luminosity | Snow |
|---|---|---|---|---|---|---|---|
| 1777987589 | 17.78° C | 76% | 1014.8 hPa | 0 mm | - | 433 W/m² | - |
| 1777987287 | 18.33° C | 76% | 1014.7 hPa | 0 mm | - | 422 W/m² | - |
| 1777986983 | 17.78° C | 77% | 1014.8 hPa | 0 mm | - | 406 W/m² | - |
| 1777986681 | 17.22° C | 78% | 1014.7 hPa | 0 mm | - | 393 W/m² | - |
| 1777986379 | 16.67° C | 79% | 1014.6 hPa | 0 mm | - | 377 W/m² | - |
| 1777986078 | 16.67° C | 81% | 1014.7 hPa | 0 mm | - | 366 W/m² | - |
| 1777985773 | 16.67° C | 81% | 1014.6 hPa | 0 mm | - | 350 W/m² | - |
| 1777985471 | 16.67° C | 81% | 1014.8 hPa | 0 mm | - | 334 W/m² | - |
| 1777985167 | 16.67° C | 81% | 1014.6 hPa | 0 mm | - | 323 W/m² | - |
| 1777984863 | 16.11° C | 82% | 1014.4 hPa | 0 mm | - | 308 W/m² | - |
| 1777984559 | 16.11° C | 82% | 1014.4 hPa | 0 mm | - | 290 W/m² | - |
| 1777984256 | 15.56° C | 83% | 1014.5 hPa | 0 mm | - | 276 W/m² | - |
| 1777983953 | 15.56° C | 84% | 1014.5 hPa | 0 mm | - | 262 W/m² | - |
| 1777983650 | 15° C | 86% | 1014.5 hPa | 0 mm | - | 248 W/m² | - |
| 1777983346 | 14.44° C | 87% | 1014.5 hPa | 0 mm | - | 239 W/m² | - |
| 1777983043 | 14.44° C | 87% | 1014.4 hPa | 0 mm | - | 77 W/m² | - |
| 1777982734 | 15° C | 87% | 1014.5 hPa | 0 mm | - | 128 W/m² | - |
| 1777982429 | 14.44° C | 88% | 1014.6 hPa | 0 mm | - | 114 W/m² | - |
| 1777982125 | 13.89° C | 89% | 1014.7 hPa | 0 mm | - | 132 W/m² | - |
| 1777981823 | 14.44° C | 89% | 1014.7 hPa | 0 mm | - | 111 W/m² | - |
| 1777981520 | 13.89° C | 89% | 1014.6 hPa | 0 mm | - | 100 W/m² | - |
| 1777981215 | 13.89° C | 90% | 1014.6 hPa | 0 mm | - | 86 W/m² | - |
| 1777980912 | 13.89° C | 90% | 1014.7 hPa | 0 mm | - | 94 W/m² | - |
| 1777980608 | 13.89° C | 90% | 1014.8 hPa | 0 mm | - | 82 W/m² | - |
| 1777980304 | 13.33° C | 91% | 1014.6 hPa | 0 mm | - | 91 W/m² | - |
* Rain latest hour (hover to see other rain measurements)
** Current wind speed in m/s (hover to see current wind gust speed)